Location: Clairmont
(55.2667°N, 118.8000°W)
Time: 11:31:26
(UTC+00:00)

ISS - Visible Passes

Search period start: 28 October 2020 00:00
Search period end: 07 November 2020 00:00
Orbit: 417 x 420 km, 51.6° (Epoch: 28 October)

Date Brightness Start Highest point End Pass type
(mag) Time Alt. Az. Time Alt. Az. Time Alt. Az.
28 Oct -1.0 11:53:53 14° SE 11:53:53 14° SE 11:55:16 10° ESE visible
28 Oct -2.5 13:26:51 13° SW 13:29:27 36° SSE 13:32:34 10° E visible
29 Oct -2.4 12:41:10 28° S 12:41:47 30° SSE 12:44:47 10° E visible
29 Oct -2.9 14:14:57 10° WSW 14:18:12 45° S 14:21:27 10° ESE visible
30 Oct -1.3 11:55:26 19° ESE 11:55:26 19° ESE 11:56:58 10° E visible
30 Oct -3.0 13:28:23 19° WSW 13:30:30 44° S 13:33:44 10° ESE visible
31 Oct -3.0 12:42:36 40° S 12:42:49 41° S 12:46:00 10° E visible
31 Oct -2.8 14:16:05 10° W 14:19:17 40° S 14:22:27 10° ESE visible
01 Nov -1.4 11:56:48 21° ESE 11:56:48 21° ESE 11:58:15 10° E visible
01 Nov -3.0 13:29:44 21° WSW 13:31:35 44° S 13:34:48 10° ESE visible
02 Nov -3.1 12:43:55 45° S 12:43:55 45° S 12:47:07 10° ESE visible
02 Nov -2.4 14:17:18 10° W 14:20:17 29° SSW 14:23:15 10° SE visible
03 Nov -1.3 11:58:06 20° ESE 11:58:06 20° ESE 11:59:23 10° ESE visible
03 Nov -2.7 13:31:03 22° WSW 13:32:37 35° SSW 13:35:43 10° SE visible
04 Nov -2.9 12:45:14 39° S 12:45:14 39° S 12:48:06 10° ESE visible
04 Nov -1.8 14:18:44 10° WSW 14:21:10 19° SSW 14:23:35 10° SSE visible
05 Nov -1.1 11:59:27 17° ESE 11:59:27 17° ESE 12:00:25 10° ESE visible
05 Nov -2.2 13:32:23 20° SW 13:33:33 24° SSW 13:36:18 10° SSE visible
06 Nov -2.2 12:46:38 26° S 12:46:38 26° S 12:48:51 10° SE visible
06 Nov -1.2 14:21:30 10° SW 14:21:53 10° SW 14:22:16 10° SSW visible
